EW9119 Weather Reports


Display with metric or nautical units.
time (UTC)temp
F
wind
direction
speed
MPH
gust
MPH
rain 1hr
in
rain 24hr
in
rain mn
in
humidity
%
barometer
mb
20260903130024 81 181 0.0 0.0 0.00 0.00 0.00 59 1015.8
20260903124539 79 180 0.0 0.0 0.00 0.00 0.00 43 1016.0
20260903123015 76 179 0.0 0.0 0.00 0.00 0.00 1 1016.0
20260903121527 72 179 0.0 0.0 0.00 0.00 0.00 1 1015.8
20260903120008 71 179 0.0 0.0 0.00 0.00 0.00 1 1015.8
20260903114503 71 179 0.0 0.0 0.00 0.00 0.00 1 1015.7
20260903113059 71 179 0.0 0.0 0.00 0.00 0.00 1 1015.5
20260903111555 70 179 0.0 0.0 0.00 0.00 0.00 1 1015.2
20260903110050 71 179 0.0 0.0 0.00 0.00 0.00 1 1015.0
20260903104546 71 179 0.0 0.0 0.00 0.00 0.00 1 1014.9
20260903103043 71 179 0.0 0.0 0.00 0.00 0.00 1 1015.0
20260903101538 71 179 0.0 0.0 0.00 0.00 0.00 1 1015.0
20260903100034 71 179 0.0 0.0 0.00 0.00 0.00 1 1014.9
20260903094529 72 179 0.0 0.0 0.00 0.00 0.00 1 1015.0
20260903093024 72 179 0.0 0.0 0.00 0.00 0.00 1 1014.9
20260903091519 72 179 0.0 0.0 0.00 0.00 0.00 1 1014.8
20260903090016 72 179 0.0 0.0 0.00 0.00 0.00 1 1014.7
20260903084514 72 179 0.0 0.0 0.00 0.00 0.00 1 1014.8
20260903083009 73 179 0.0 0.0 0.00 0.00 0.00 1 1014.7
20260903081504 73 179 0.0 0.0 0.00 0.00 0.00 1 1014.7
20260903080106 73 179 0.0 0.0 0.00 0.00 0.00 1 1014.5
20260903074557 73 179 0.0 0.0 0.00 0.00 0.00 1 1014.4
20260903073109 73 179 0.0 0.0 0.00 0.00 0.00 4 1014.2
20260903071548 74 179 0.0 0.0 0.00 0.00 0.00 11 1014.0
20260903070046 74 179 0.0 0.0 0.00 0.00 0.00 17 1014.1
20260903064550 74 179 0.0 0.0 0.00 0.00 0.00 23 1014.0
20260903063040 74 179 0.0 0.0 0.00 0.00 0.00 29 1014.1
20260903061538 75 179 0.0 0.0 0.00 0.00 0.00 30 1014.3
20260903060036 75 179 0.0 0.0 0.00 0.00 0.00 36 1014.3
20260903054534 75 179 0.0 0.0 0.00 0.00 0.00 41 1014.3
20260903053031 75 179 0.0 0.0 0.00 0.00 0.00 46 1014.5
20260903051530 76 179 0.0 0.0 0.00 0.00 0.00 48 1014.3
20260903050028 76 179 0.0 0.0 0.00 0.00 0.00 49 1014.4
20260903044526 76 179 0.0 0.0 0.00 0.00 0.00 53 1014.4
20260903043023 77 179 0.0 0.0 0.00 0.00 0.00 56 1014.3
20260903041521 77 179 0.0 0.0 0.00 0.00 0.00 57 1014.2
20260903040023 77 179 0.0 0.0 0.00 0.00 0.00 60 1014.2
20260903034519 78 179 0.0 0.0 0.00 0.00 0.00 63 1014.1
20260903033013 78 179 0.0 0.0 0.00 0.00 0.00 64 1014.3
20260903031509 79 179 0.0 0.0 0.00 0.00 0.00 66 1014.4
20260903030110 79 179 0.0 0.0 0.00 0.00 0.00 66 1014.5
20260903024501 79 179 0.0 0.0 0.00 0.00 0.00 67 1014.6
20260903023106 80 179 0.0 0.0 0.00 0.00 0.00 67 1014.7
20260903021559 80 179 0.0 0.0 0.00 0.00 0.00 67 1014.8
20260903020057 80 179 0.0 0.0 0.00 0.00 0.00 68 1014.8
20260903014555 81 179 0.0 0.0 0.00 0.00 0.00 68 1014.8
20260903013050 81 179 0.0 0.0 0.00 0.00 0.00 69 1014.8
20260903011541 82 179 0.0 0.0 0.00 0.00 0.00 69 1014.8
20260903010039 82 179 0.0 0.0 0.00 0.00 0.00 69 1014.7
20260903004534 83 179 0.0 0.0 0.00 0.00 0.00 69 1014.5
20260903003028 84 179 0.0 0.0 0.00 0.00 0.00 68 1014.4
20260903001525 84 179 0.0 0.0 0.00 0.00 0.00 67 1014.4
20260903000032 85 179 0.0 0.0 0.00 0.00 0.00 66 1014.2
20260902234527 86 179 0.0 0.0 0.00 0.00 0.00 65 1014.1
20260902233024 87 179 0.0 0.0 0.00 0.00 0.00 64 1013.9
20260902231525 88 179 0.0 0.0 0.00 0.00 0.00 62 1013.9
20260902230022 89 179 0.0 0.0 0.00 0.00 0.00 60 1013.9
20260902224522 90 179 0.0 0.0 0.00 0.00 0.00 57 1013.7
20260902223032 91 179 0.0 0.0 0.00 0.00 0.00 55 1013.7
20260902221519 92 179 0.0 0.0 0.00 0.00 0.00 52 1013.7
20260902220009 92 179 0.0 0.0 0.00 0.00 0.00 52 1013.9
20260902214505 93 179 0.0 0.0 0.00 0.00 0.00 49 1013.8
20260902213101 93 218 0.0 0.0 0.00 0.00 0.00 49 1013.8
20260902211557 94 299 0.0 0.0 0.00 0.00 0.00 48 1013.7
20260902210052 94 126 0.0 0.0 0.00 0.00 0.00 44 1013.7
20260902204617 95 159 0.0 0.0 0.00 0.00 0.00 44 1013.7
20260902203042 95 125 0.0 0.0 0.00 0.00 0.00 46 1013.9
20260902201540 95 113 0.0 0.0 0.00 0.00 0.00 44 1013.9
20260902200034 94 126 0.0 0.0 0.00 0.00 0.00 45 1014.1
20260902194530 95 101 0.0 0.0 0.00 0.00 0.00 44 1014.3
20260902193026 95 330 0.0 0.0 0.00 0.00 0.00 43 1014.5
20260902191521 95 38 0.0 0.0 0.00 0.00 0.00 46 1014.7
20260902190017 94 147 0.0 0.0 0.00 0.00 0.00 44 1014.8
20260902184511 94 119 0.0 0.0 0.00 0.00 0.00 46 1014.9
20260902183025 95 338 0.0 0.0 0.00 0.00 0.00 44 1015.0
20260902181503 95 317 0.0 0.0 0.00 0.00 0.00 45 1015.1
20260902180059 94 103 0.0 1.0 0.00 0.00 0.00 44 1015.2
20260902174558 96 333 0.0 0.0 0.00 0.00 0.00 45 1015.4
20260902173058 96 74 0.0 0.0 0.00 0.00 0.00 45 1015.5
20260902171548 93 315 0.0 0.0 0.00 0.00 0.00 47 1015.7
20260902170048 95 19 0.0 0.0 0.00 0.00 0.00 44 1015.8
20260902164542 94 321 0.0 0.0 0.00 0.00 0.00 47 1016.1
20260902163041 94 348 0.0 0.0 0.00 0.00 0.00 46 1016.3
20260902161528 93 116 0.0 0.0 0.00 0.00 0.00 49 1016.3
20260902160024 92 310 0.0 0.0 0.00 0.00 0.00 50 1016.4
20260902154520 91 305 0.0 0.0 0.00 0.00 0.00 51 1016.5
20260902153015 92 71 0.0 0.0 0.00 0.00 0.00 54 1016.5
20260902151510 91 99 0.0 0.0 0.00 0.00 0.00 53 1016.6
20260902150007 90 269 0.0 0.0 0.00 0.00 0.00 55 1016.6
20260902144501 89 327 0.0 0.0 0.00 0.00 0.00 58 1016.6
20260902143058 88 327 0.0 0.0 0.00 0.00 0.00 58 1016.5
20260902141553 88 305 0.0 0.0 0.00 0.00 0.00 63 1016.4
20260902140052 87 315 0.0 0.0 0.00 0.00 0.00 63 1016.3
20260902134547 85 314 0.0 0.0 0.00 0.00 0.00 64 1016.4
20260902133040 84 318 0.0 0.0 0.00 0.00 0.00 67 1016.5
20260902131535 82 318 0.0 0.0 0.00 0.00 0.00 67 1016.6